Year,Month,Day,Hour,Minute,Value (Times are PST for temperature in C)
2016,08,20,00,00,18.90
2016,08,20,00,01,18.90
2016,08,20,00,02,18.90
2016,08,20,00,03,18.90
2016,08,20,00,04,18.90
2016,08,20,00,05,18.90
2016,08,20,00,06,18.90
2016,08,20,00,07,18.90
2016,08,20,00,08,18.90
2016,08,20,00,09,18.90
2016,08,20,00,10,18.90
2016,08,20,00,11,18.80
2016,08,20,00,12,18.80
2016,08,20,00,13,18.80
2016,08,20,00,14,18.80
2016,08,20,00,15,18.80
2016,08,20,00,16,18.70
2016,08,20,00,17,18.70
2016,08,20,00,18,18.70
2016,08,20,00,19,18.70
2016,08,20,00,20,18.70
2016,08,20,00,21,18.70
2016,08,20,00,22,18.70
2016,08,20,00,23,18.70
2016,08,20,00,24,18.70
2016,08,20,00,25,18.70
2016,08,20,00,26,18.70
2016,08,20,00,27,18.70
2016,08,20,00,28,18.70
2016,08,20,00,29,18.80
2016,08,20,00,30,18.80
2016,08,20,00,31,18.80
2016,08,20,00,32,18.80
2016,08,20,00,33,18.80
2016,08,20,00,34,18.80
2016,08,20,00,35,18.70
2016,08,20,00,36,18.70
2016,08,20,00,37,18.60
2016,08,20,00,38,18.60
2016,08,20,00,39,18.60
2016,08,20,00,40,18.50
2016,08,20,00,41,18.50
2016,08,20,00,42,18.40
2016,08,20,00,43,18.40
2016,08,20,00,44,18.30
2016,08,20,00,45,18.30
2016,08,20,00,46,18.20
2016,08,20,00,47,18.20
2016,08,20,00,48,18.20
2016,08,20,00,49,18.20
2016,08,20,00,50,18.10
2016,08,20,00,51,18.10
2016,08,20,00,52,18.10
2016,08,20,00,53,18.10
2016,08,20,00,54,18.00
2016,08,20,00,55,17.90
2016,08,20,00,56,17.90
2016,08,20,00,57,17.90
2016,08,20,00,58,17.90
2016,08,20,00,59,17.90
2016,08,20,01,00,17.90
2016,08,20,01,01,17.90
2016,08,20,01,02,17.90
2016,08,20,01,03,17.90
2016,08,20,01,04,17.80
2016,08,20,01,05,17.80
2016,08,20,01,06,17.80
2016,08,20,01,07,17.80
2016,08,20,01,08,17.70
2016,08,20,01,09,17.70
2016,08,20,01,10,17.70
2016,08,20,01,11,17.70
2016,08,20,01,12,17.70
2016,08,20,01,13,17.70
2016,08,20,01,14,17.70
2016,08,20,01,15,17.70
2016,08,20,01,16,17.60
2016,08,20,01,17,17.60
2016,08,20,01,18,17.60
2016,08,20,01,19,17.60
2016,08,20,01,20,17.60
2016,08,20,01,21,17.60
2016,08,20,01,22,17.60
2016,08,20,01,23,17.60
2016,08,20,01,24,17.60
2016,08,20,01,25,17.60
2016,08,20,01,26,17.60
2016,08,20,01,27,17.60
2016,08,20,01,28,17.50
2016,08,20,01,29,17.50
2016,08,20,01,30,17.50
2016,08,20,01,31,17.50
2016,08,20,01,32,17.40
2016,08,20,01,33,17.40
2016,08,20,01,34,17.40
2016,08,20,01,35,17.30
2016,08,20,01,36,17.30
2016,08,20,01,37,17.30
2016,08,20,01,38,17.30
2016,08,20,01,39,17.30
2016,08,20,01,40,17.30
2016,08,20,01,41,17.30
2016,08,20,01,42,17.20
2016,08,20,01,43,17.20
2016,08,20,01,44,17.20
2016,08,20,01,45,17.20
2016,08,20,01,46,17.20
2016,08,20,01,47,17.20
2016,08,20,01,48,17.20
2016,08,20,01,49,17.20
2016,08,20,01,50,17.20
2016,08,20,01,51,17.20
2016,08,20,01,52,17.20
2016,08,20,01,53,17.20
2016,08,20,01,54,17.10
2016,08,20,01,55,17.10
2016,08,20,01,56,17.10
2016,08,20,01,57,17.10
2016,08,20,01,58,17.10
2016,08,20,01,59,17.10
2016,08,20,02,00,17.10
2016,08,20,02,01,17.10
2016,08,20,02,02,17.10
2016,08,20,02,03,17.10
2016,08,20,02,04,17.10
2016,08,20,02,05,17.10
2016,08,20,02,06,17.00
2016,08,20,02,07,17.00
2016,08,20,02,08,17.00
2016,08,20,02,09,17.00
2016,08,20,02,10,16.90
2016,08,20,02,11,16.90
2016,08,20,02,12,16.90
2016,08,20,02,13,16.90
2016,08,20,02,14,16.90
2016,08,20,02,15,16.90
2016,08,20,02,16,16.90
2016,08,20,02,17,16.80
2016,08,20,02,18,16.80
2016,08,20,02,19,16.80
2016,08,20,02,20,16.80
2016,08,20,02,21,16.80
2016,08,20,02,22,16.70
2016,08,20,02,23,16.70
2016,08,20,02,24,16.70
2016,08,20,02,25,16.70
2016,08,20,02,26,16.70
2016,08,20,02,27,16.70
2016,08,20,02,28,16.70
2016,08,20,02,29,16.70
2016,08,20,02,30,16.70
2016,08,20,02,31,16.70
2016,08,20,02,32,16.70
2016,08,20,02,33,16.70
2016,08,20,02,34,16.70
2016,08,20,02,35,16.70
2016,08,20,02,36,16.70
2016,08,20,02,37,16.70
2016,08,20,02,38,16.60
2016,08,20,02,39,16.60
2016,08,20,02,40,16.60
2016,08,20,02,41,16.60
2016,08,20,02,42,16.60
2016,08,20,02,43,16.60
2016,08,20,02,44,16.60
2016,08,20,02,45,16.60
2016,08,20,02,46,16.60
2016,08,20,02,47,16.50
2016,08,20,02,48,16.40
2016,08,20,02,49,16.40
2016,08,20,02,50,16.40
2016,08,20,02,51,16.40
2016,08,20,02,52,16.40
2016,08,20,02,53,16.30
2016,08,20,02,54,16.30
2016,08,20,02,55,16.30
2016,08,20,02,56,16.30
2016,08,20,02,57,16.30
2016,08,20,02,58,16.30
2016,08,20,02,59,16.30
2016,08,20,03,00,16.30
2016,08,20,03,01,16.30
2016,08,20,03,02,16.30
2016,08,20,03,03,16.30
2016,08,20,03,04,16.30
2016,08,20,03,05,16.30
2016,08,20,03,06,16.30
2016,08,20,03,07,16.30
2016,08,20,03,08,16.30
2016,08,20,03,09,16.30
2016,08,20,03,10,16.30
2016,08,20,03,11,16.40
2016,08,20,03,12,16.40
2016,08,20,03,13,16.40
2016,08,20,03,14,16.40
2016,08,20,03,15,16.40
2016,08,20,03,16,16.30
2016,08,20,03,17,16.30
2016,08,20,03,18,16.30
2016,08,20,03,19,16.30
2016,08,20,03,20,16.30
2016,08,20,03,21,16.20
2016,08,20,03,22,16.20
2016,08,20,03,23,16.20
2016,08,20,03,24,16.20
2016,08,20,03,25,16.20
2016,08,20,03,26,16.20
2016,08,20,03,27,16.20
2016,08,20,03,28,16.20
2016,08,20,03,29,16.10
2016,08,20,03,30,16.10
2016,08,20,03,31,16.10
2016,08,20,03,32,16.10
2016,08,20,03,33,16.10
2016,08,20,03,34,16.10
2016,08,20,03,35,16.10
2016,08,20,03,36,16.10
2016,08,20,03,37,16.10
2016,08,20,03,38,16.10
2016,08,20,03,39,16.10
2016,08,20,03,40,16.20
2016,08,20,03,41,16.20
2016,08,20,03,42,16.20
2016,08,20,03,43,16.20
2016,08,20,03,44,16.20
2016,08,20,03,45,16.20
2016,08,20,03,46,16.20
2016,08,20,03,47,16.10
2016,08,20,03,48,16.10
2016,08,20,03,49,16.10
2016,08,20,03,50,16.10
2016,08,20,03,51,16.10
2016,08,20,03,52,16.10
2016,08,20,03,53,16.10
2016,08,20,03,54,16.10
2016,08,20,03,55,16.10
2016,08,20,03,56,16.10
2016,08,20,03,57,16.10
2016,08,20,03,58,16.10
2016,08,20,03,59,16.10
2016,08,20,04,00,16.10
2016,08,20,04,01,16.10
2016,08,20,04,02,16.10
2016,08,20,04,03,16.10
2016,08,20,04,04,16.10
2016,08,20,04,05,16.00
2016,08,20,04,06,15.90
2016,08,20,04,07,15.90
2016,08,20,04,08,15.90
2016,08,20,04,09,15.80
2016,08,20,04,10,15.80
2016,08,20,04,11,15.80
2016,08,20,04,12,15.80
2016,08,20,04,13,15.80
2016,08,20,04,14,15.80
2016,08,20,04,15,15.80
2016,08,20,04,16,15.80
2016,08,20,04,17,15.80
2016,08,20,04,18,15.80
2016,08,20,04,19,15.80
2016,08,20,04,20,15.80
2016,08,20,04,21,15.80
2016,08,20,04,22,15.80
2016,08,20,04,23,15.80
2016,08,20,04,24,15.80
2016,08,20,04,25,15.80
2016,08,20,04,26,15.80
2016,08,20,04,27,15.80
2016,08,20,04,28,15.80
2016,08,20,04,29,15.70
2016,08,20,04,30,15.70
2016,08,20,04,31,15.70
2016,08,20,04,32,15.60
2016,08,20,04,33,15.60
2016,08,20,04,34,15.60
2016,08,20,04,35,15.60
2016,08,20,04,36,15.60
2016,08,20,04,37,15.50
2016,08,20,04,38,15.50
2016,08,20,04,39,15.50
2016,08,20,04,40,15.50
2016,08,20,04,41,15.50
2016,08,20,04,42,15.50
2016,08,20,04,43,15.50
2016,08,20,04,44,15.50
2016,08,20,04,45,15.50
2016,08,20,04,46,15.50
2016,08,20,04,47,15.40
2016,08,20,04,48,15.40
2016,08,20,04,49,15.40
2016,08,20,04,50,15.40
2016,08,20,04,51,15.40
2016,08,20,04,52,15.40
2016,08,20,04,53,15.40
2016,08,20,04,54,15.40
2016,08,20,04,55,15.30
2016,08,20,04,56,15.30
2016,08,20,04,57,15.30
2016,08,20,04,58,15.30
2016,08,20,04,59,15.30
2016,08,20,05,00,15.30
2016,08,20,05,01,15.30
2016,08,20,05,02,15.30
2016,08,20,05,03,15.30
2016,08,20,05,04,15.30
2016,08,20,05,05,15.30
2016,08,20,05,06,15.30
2016,08,20,05,07,15.30
2016,08,20,05,08,15.30
2016,08,20,05,09,15.30
2016,08,20,05,10,15.30
2016,08,20,05,11,15.30
2016,08,20,05,12,15.30
2016,08,20,05,13,15.30
2016,08,20,05,14,15.30
2016,08,20,05,15,15.30
2016,08,20,05,16,15.30
2016,08,20,05,17,15.30
2016,08,20,05,18,15.30
2016,08,20,05,19,15.30
2016,08,20,05,20,15.30
2016,08,20,05,21,15.30
2016,08,20,05,22,15.30
2016,08,20,05,23,15.30
2016,08,20,05,24,15.30
2016,08,20,05,25,15.30
2016,08,20,05,26,15.30
2016,08,20,05,27,15.30
2016,08,20,05,28,15.30
2016,08,20,05,29,15.30
2016,08,20,05,30,15.30
2016,08,20,05,31,15.30
2016,08,20,05,32,15.30
2016,08,20,05,33,15.20
2016,08,20,05,34,15.20
2016,08,20,05,35,15.20
2016,08,20,05,36,15.20
2016,08,20,05,37,15.20
2016,08,20,05,38,15.20
2016,08,20,05,39,15.20
2016,08,20,05,40,15.20
2016,08,20,05,41,15.20
2016,08,20,05,42,15.10
2016,08,20,05,43,15.10
2016,08,20,05,44,15.10
2016,08,20,05,45,15.10
2016,08,20,05,46,15.10
2016,08,20,05,47,15.10
2016,08,20,05,48,15.10
2016,08,20,05,49,15.10
2016,08,20,05,50,15.10
2016,08,20,05,51,15.10
2016,08,20,05,52,15.10
2016,08,20,05,53,15.00
2016,08,20,05,54,15.00
2016,08,20,05,55,15.00
2016,08,20,05,56,15.00
2016,08,20,05,57,14.90
2016,08,20,05,58,14.90
2016,08,20,05,59,14.90
2016,08,20,06,00,14.80
2016,08,20,06,01,14.80
2016,08,20,06,02,14.80
2016,08,20,06,03,14.80
2016,08,20,06,04,14.80
2016,08,20,06,05,14.80
2016,08,20,06,06,14.80
2016,08,20,06,07,14.70
2016,08,20,06,08,14.70
2016,08,20,06,09,14.70
2016,08,20,06,10,14.70
2016,08,20,06,11,14.60
2016,08,20,06,12,14.60
2016,08,20,06,13,14.60
2016,08,20,06,14,14.60
2016,08,20,06,15,14.60
2016,08,20,06,16,14.60
2016,08,20,06,17,14.60
2016,08,20,06,18,14.60
2016,08,20,06,19,14.60
2016,08,20,06,20,14.50
2016,08,20,06,21,14.50
2016,08,20,06,22,14.50
2016,08,20,06,23,14.50
2016,08,20,06,24,14.50
2016,08,20,06,25,14.50
2016,08,20,06,26,14.50
2016,08,20,06,27,14.50
2016,08,20,06,28,14.50
2016,08,20,06,29,14.50
2016,08,20,06,30,14.50
2016,08,20,06,31,14.50
2016,08,20,06,32,14.40
2016,08,20,06,33,14.40
2016,08,20,06,34,14.40
2016,08,20,06,35,14.40
2016,08,20,06,36,14.40
2016,08,20,06,37,14.40
2016,08,20,06,38,14.40
2016,08,20,06,39,14.40
2016,08,20,06,40,14.40
2016,08,20,06,41,14.40
2016,08,20,06,42,14.40
2016,08,20,06,43,14.40
2016,08,20,06,44,14.40
2016,08,20,06,45,14.50
2016,08,20,06,46,14.50
2016,08,20,06,47,14.50
2016,08,20,06,48,14.50
2016,08,20,06,49,14.50
2016,08,20,06,50,14.50
2016,08,20,06,51,14.60
2016,08,20,06,52,14.60
2016,08,20,06,53,14.60
2016,08,20,06,54,14.70
2016,08,20,06,55,14.70
2016,08,20,06,56,14.70
2016,08,20,06,57,14.70
2016,08,20,06,58,14.70
2016,08,20,06,59,14.70
2016,08,20,07,00,14.70
2016,08,20,07,01,14.70
2016,08,20,07,02,14.70
2016,08,20,07,03,14.70
2016,08,20,07,04,14.70
2016,08,20,07,05,14.70
2016,08,20,07,06,14.70
2016,08,20,07,07,14.70
2016,08,20,07,08,14.80
2016,08,20,07,09,14.80
2016,08,20,07,10,14.80
2016,08,20,07,11,14.80
2016,08,20,07,12,14.80
2016,08,20,07,13,14.80
2016,08,20,07,14,14.90
2016,08,20,07,15,14.90
2016,08,20,07,16,14.90
2016,08,20,07,17,15.00
2016,08,20,07,18,15.10
2016,08,20,07,19,15.10
2016,08,20,07,20,15.20
2016,08,20,07,21,15.20
2016,08,20,07,22,15.30
2016,08,20,07,23,15.30
2016,08,20,07,24,15.40
2016,08,20,07,25,15.50
2016,08,20,07,26,15.50
2016,08,20,07,27,15.60
2016,08,20,07,28,15.60
2016,08,20,07,29,15.70
2016,08,20,07,30,15.80
2016,08,20,07,31,15.80
2016,08,20,07,32,15.80
2016,08,20,07,33,15.90
2016,08,20,07,34,16.00
2016,08,20,07,35,16.10
2016,08,20,07,36,16.20
2016,08,20,07,37,16.30
2016,08,20,07,38,16.30
2016,08,20,07,39,16.40
2016,08,20,07,40,16.60
2016,08,20,07,41,16.70
2016,08,20,07,42,16.90
2016,08,20,07,43,17.10
2016,08,20,07,44,17.30
2016,08,20,07,45,17.50
2016,08,20,07,46,17.60
2016,08,20,07,47,17.80
2016,08,20,07,48,17.90
2016,08,20,07,49,17.90
2016,08,20,07,50,18.00
2016,08,20,07,51,18.10
2016,08,20,07,52,18.20
2016,08,20,07,53,18.40
2016,08,20,07,54,18.60
2016,08,20,07,55,18.70
2016,08,20,07,56,18.90
2016,08,20,07,57,19.00
2016,08,20,07,58,19.20
2016,08,20,07,59,19.30
2016,08,20,08,00,19.40
2016,08,20,08,01,19.50
2016,08,20,08,02,19.50
2016,08,20,08,03,19.60
2016,08,20,08,04,19.70
2016,08,20,08,05,19.80
2016,08,20,08,06,19.90
2016,08,20,08,07,20.10
2016,08,20,08,08,20.20
2016,08,20,08,09,20.30
2016,08,20,08,10,20.40
2016,08,20,08,11,20.50
2016,08,20,08,12,20.60
2016,08,20,08,13,20.80
2016,08,20,08,14,20.80
2016,08,20,08,15,20.90
2016,08,20,08,16,21.00
2016,08,20,08,17,21.10
2016,08,20,08,18,21.30
2016,08,20,08,19,21.30
2016,08,20,08,20,21.40
2016,08,20,08,21,21.40
2016,08,20,08,22,21.30
2016,08,20,08,23,21.30
2016,08,20,08,24,21.30
2016,08,20,08,25,21.30
2016,08,20,08,26,21.30
2016,08,20,08,27,21.30
2016,08,20,08,28,21.30
2016,08,20,08,29,21.30
2016,08,20,08,30,21.30
2016,08,20,08,31,21.30
2016,08,20,08,32,21.30
2016,08,20,08,33,21.30
2016,08,20,08,34,21.40
2016,08,20,08,35,21.40
2016,08,20,08,36,21.40
2016,08,20,08,37,21.40
2016,08,20,08,38,21.50
2016,08,20,08,39,21.60
2016,08,20,08,40,21.60
2016,08,20,08,41,21.60
2016,08,20,08,42,21.60
2016,08,20,08,43,21.60
2016,08,20,08,44,21.60
2016,08,20,08,45,21.60
2016,08,20,08,46,21.60
2016,08,20,08,47,21.60
2016,08,20,08,48,21.60
2016,08,20,08,49,21.60
2016,08,20,08,50,21.60
2016,08,20,08,51,21.60
2016,08,20,08,52,21.60
2016,08,20,08,53,21.60
2016,08,20,08,54,21.70
2016,08,20,08,55,21.80
2016,08,20,08,56,21.80
2016,08,20,08,57,21.90
2016,08,20,08,58,22.00
2016,08,20,08,59,22.00
2016,08,20,09,00,22.00
2016,08,20,09,01,22.00
2016,08,20,09,02,22.00
2016,08,20,09,03,22.00
2016,08,20,09,04,22.00
2016,08,20,09,05,21.90
2016,08,20,09,06,21.80
2016,08,20,09,07,21.80
2016,08,20,09,08,21.70
2016,08,20,09,09,21.70
2016,08,20,09,10,21.70
2016,08,20,09,11,21.70
2016,08,20,09,12,21.70
2016,08,20,09,13,21.70
2016,08,20,09,14,21.80
2016,08,20,09,15,21.90
2016,08,20,09,16,21.90
2016,08,20,09,17,22.00
2016,08,20,09,18,22.00
2016,08,20,09,19,22.00
2016,08,20,09,20,22.00
2016,08,20,09,21,22.00
2016,08,20,09,22,22.00
2016,08,20,09,23,22.00
2016,08,20,09,24,22.10
2016,08,20,09,25,22.10
2016,08,20,09,26,22.20
2016,08,20,09,27,22.20
2016,08,20,09,28,22.20
2016,08,20,09,29,22.20
2016,08,20,09,30,22.30
2016,08,20,09,31,22.40
2016,08,20,09,32,22.40
2016,08,20,09,33,22.30
2016,08,20,09,34,22.20
2016,08,20,09,35,22.00
2016,08,20,09,36,21.90
2016,08,20,09,37,21.80
2016,08,20,09,38,21.70
2016,08,20,09,39,21.60
2016,08,20,09,40,21.60
2016,08,20,09,41,21.60
2016,08,20,09,42,21.60
2016,08,20,09,43,21.60
2016,08,20,09,44,21.60
2016,08,20,09,45,21.60
2016,08,20,09,46,21.60
2016,08,20,09,47,21.70
2016,08,20,09,48,21.80
2016,08,20,09,49,21.80
2016,08,20,09,50,21.80
2016,08,20,09,51,21.80
2016,08,20,09,52,21.80
2016,08,20,09,53,21.90
2016,08,20,09,54,22.00
2016,08,20,09,55,22.10
2016,08,20,09,56,22.10
2016,08,20,09,57,22.10
2016,08,20,09,58,22.10
2016,08,20,09,59,22.10
2016,08,20,10,00,22.00
2016,08,20,10,01,22.00
2016,08,20,10,02,22.00
2016,08,20,10,03,22.10
2016,08,20,10,04,22.10
2016,08,20,10,05,22.00
2016,08,20,10,06,22.00
2016,08,20,10,07,22.00
2016,08,20,10,08,22.00
2016,08,20,10,09,22.00
2016,08,20,10,10,22.00
2016,08,20,10,11,22.10
2016,08,20,10,12,22.10
2016,08,20,10,13,22.10
2016,08,20,10,14,22.20
2016,08,20,10,15,22.30
2016,08,20,10,16,22.40
2016,08,20,10,17,22.50
2016,08,20,10,18,22.70
2016,08,20,10,19,22.80
2016,08,20,10,20,22.80
2016,08,20,10,21,22.80
2016,08,20,10,22,22.80
2016,08,20,10,23,22.80
2016,08,20,10,24,22.80
2016,08,20,10,25,22.80
2016,08,20,10,26,22.90
2016,08,20,10,27,23.00
2016,08,20,10,28,23.10
2016,08,20,10,29,23.20
2016,08,20,10,30,23.20
2016,08,20,10,31,23.20
2016,08,20,10,32,23.10
2016,08,20,10,33,23.10
2016,08,20,10,34,23.10
2016,08,20,10,35,23.00
2016,08,20,10,36,22.90
2016,08,20,10,37,22.90
2016,08,20,10,38,23.00
2016,08,20,10,39,23.10
2016,08,20,10,40,23.10
2016,08,20,10,41,23.10
2016,08,20,10,42,23.00
2016,08,20,10,43,22.90
2016,08,20,10,44,22.90
2016,08,20,10,45,22.90
2016,08,20,10,46,22.90
2016,08,20,10,47,22.90
2016,08,20,10,48,22.90
2016,08,20,10,49,22.80
2016,08,20,10,50,22.80
2016,08,20,10,51,22.80
2016,08,20,10,52,22.80
2016,08,20,10,53,23.00
2016,08,20,10,54,23.10
2016,08,20,10,55,23.30
2016,08,20,10,56,23.30
2016,08,20,10,57,23.30
2016,08,20,10,58,23.30
2016,08,20,10,59,23.30
2016,08,20,11,00,23.30
2016,08,20,11,01,23.30
2016,08,20,11,02,23.40
2016,08,20,11,03,23.40
2016,08,20,11,04,23.50
2016,08,20,11,05,23.50
2016,08,20,11,06,23.60
2016,08,20,11,07,23.70
2016,08,20,11,08,23.70
2016,08,20,11,09,23.70
2016,08,20,11,10,23.70
2016,08,20,11,11,23.70
2016,08,20,11,12,23.70
2016,08,20,11,13,23.70
2016,08,20,11,14,23.70
2016,08,20,11,15,23.70
2016,08,20,11,16,23.80
2016,08,20,11,17,23.80
2016,08,20,11,18,23.80
2016,08,20,11,19,23.80
2016,08,20,11,20,23.90
2016,08,20,11,21,23.80
2016,08,20,11,22,23.80
2016,08,20,11,23,23.80
2016,08,20,11,24,23.70
2016,08,20,11,25,23.60
2016,08,20,11,26,23.60
2016,08,20,11,27,23.70
2016,08,20,11,28,23.70
2016,08,20,11,29,23.70
2016,08,20,11,30,23.70
2016,08,20,11,31,23.60
2016,08,20,11,32,23.50
2016,08,20,11,33,23.40
2016,08,20,11,34,23.30
2016,08,20,11,35,23.30
2016,08,20,11,36,23.30
2016,08,20,11,37,23.20
2016,08,20,11,38,23.00
2016,08,20,11,39,22.90
2016,08,20,11,40,22.80
2016,08,20,11,41,22.80
2016,08,20,11,42,22.70
2016,08,20,11,43,22.60
2016,08,20,11,44,22.60
2016,08,20,11,45,22.60
2016,08,20,11,46,22.60
2016,08,20,11,47,22.80
2016,08,20,11,48,22.90
2016,08,20,11,49,22.90
2016,08,20,11,50,22.90
2016,08,20,11,51,23.10
2016,08,20,11,52,23.30
2016,08,20,11,53,23.30
2016,08,20,11,54,23.40
2016,08,20,11,55,23.50
2016,08,20,11,56,23.60
2016,08,20,11,57,23.70
2016,08,20,11,58,23.80
2016,08,20,11,59,23.70
2016,08,20,12,00,23.70
2016,08,20,12,01,23.80
2016,08,20,12,02,23.90
2016,08,20,12,03,24.00
2016,08,20,12,04,24.10
2016,08,20,12,05,24.10
2016,08,20,12,06,24.10
2016,08,20,12,07,24.10
2016,08,20,12,08,24.10
2016,08,20,12,09,24.10
2016,08,20,12,10,24.10
2016,08,20,12,11,24.10
2016,08,20,12,12,24.10
2016,08,20,12,13,24.10
2016,08,20,12,14,24.20
2016,08,20,12,15,24.30
2016,08,20,12,16,24.40
2016,08,20,12,17,24.40
2016,08,20,12,18,24.40
2016,08,20,12,19,24.40
2016,08,20,12,20,24.50
2016,08,20,12,21,24.50
2016,08,20,12,22,24.50
2016,08,20,12,23,24.50
2016,08,20,12,24,24.60
2016,08,20,12,25,24.60
2016,08,20,12,26,24.60
2016,08,20,12,27,24.60
2016,08,20,12,28,24.60
2016,08,20,12,29,24.60
2016,08,20,12,30,24.70
2016,08,20,12,31,24.80
2016,08,20,12,32,24.80
2016,08,20,12,33,24.80
2016,08,20,12,34,24.70
2016,08,20,12,35,24.60
2016,08,20,12,36,24.50
2016,08,20,12,37,24.40
2016,08,20,12,38,24.40
2016,08,20,12,39,24.40
2016,08,20,12,40,24.40
2016,08,20,12,41,24.40
2016,08,20,12,42,24.30
2016,08,20,12,43,24.30
2016,08,20,12,44,24.30
2016,08,20,12,45,24.30
2016,08,20,12,46,24.10
2016,08,20,12,47,24.10
2016,08,20,12,48,24.20
2016,08,20,12,49,24.10
2016,08,20,12,50,24.10
2016,08,20,12,51,24.10
2016,08,20,12,52,24.20
2016,08,20,12,53,24.10
2016,08,20,12,54,24.10
2016,08,20,12,55,24.10
2016,08,20,12,56,24.10
2016,08,20,12,57,24.10
2016,08,20,12,58,24.20
2016,08,20,12,59,24.20
2016,08,20,13,00,24.20
2016,08,20,13,01,24.20
2016,08,20,13,02,24.20
2016,08,20,13,03,24.20
2016,08,20,13,04,24.40
2016,08,20,13,05,24.50
2016,08,20,13,06,24.50
2016,08,20,13,07,24.60
2016,08,20,13,08,24.70
2016,08,20,13,09,24.90
2016,08,20,13,10,24.90
2016,08,20,13,11,24.90
2016,08,20,13,12,24.80
2016,08,20,13,13,24.80
2016,08,20,13,14,24.80
2016,08,20,13,15,24.90
2016,08,20,13,16,25.00
2016,08,20,13,17,25.00
2016,08,20,13,18,25.00
2016,08,20,13,19,24.90
2016,08,20,13,20,24.70
2016,08,20,13,21,24.60
2016,08,20,13,22,24.50
2016,08,20,13,23,24.60
2016,08,20,13,24,24.60
2016,08,20,13,25,24.50
2016,08,20,13,26,24.40
2016,08,20,13,27,24.20
2016,08,20,13,28,24.10
2016,08,20,13,29,24.00
2016,08,20,13,30,23.90
2016,08,20,13,31,23.80
2016,08,20,13,32,23.80
2016,08,20,13,33,23.80
2016,08,20,13,34,23.90
2016,08,20,13,35,23.90
2016,08,20,13,36,23.90
2016,08,20,13,37,23.80
2016,08,20,13,38,23.70
2016,08,20,13,39,23.70
2016,08,20,13,40,23.60
2016,08,20,13,41,23.60
2016,08,20,13,42,23.60
2016,08,20,13,43,23.60
2016,08,20,13,44,23.70
2016,08,20,13,45,23.80
2016,08,20,13,46,24.00
2016,08,20,13,47,24.10
2016,08,20,13,48,24.10
2016,08,20,13,49,24.10
2016,08,20,13,50,24.10
2016,08,20,13,51,24.10
2016,08,20,13,52,24.10
2016,08,20,13,53,24.20
2016,08,20,13,54,24.20
2016,08,20,13,55,24.30
2016,08,20,13,56,24.30
2016,08,20,13,57,24.50
2016,08,20,13,58,24.50
2016,08,20,13,59,24.50
2016,08,20,14,00,24.50
2016,08,20,14,01,24.50
2016,08,20,14,02,24.60
2016,08,20,14,03,24.70
2016,08,20,14,04,24.80
2016,08,20,14,05,24.90
2016,08,20,14,06,25.10
2016,08,20,14,07,25.20
2016,08,20,14,08,25.20
2016,08,20,14,09,25.00
2016,08,20,14,10,24.90
2016,08,20,14,11,24.70
2016,08,20,14,12,24.50
2016,08,20,14,13,24.40
2016,08,20,14,14,24.40
2016,08,20,14,15,24.40
2016,08,20,14,16,24.30
2016,08,20,14,17,24.30
2016,08,20,14,18,24.40
2016,08,20,14,19,24.60
2016,08,20,14,20,24.80
2016,08,20,14,21,24.90
2016,08,20,14,22,24.90
2016,08,20,14,23,25.00
2016,08,20,14,24,25.10
2016,08,20,14,25,25.10
2016,08,20,14,26,25.20
2016,08,20,14,27,25.20
2016,08,20,14,28,25.40
2016,08,20,14,29,25.40
2016,08,20,14,30,25.40
2016,08,20,14,31,25.40
2016,08,20,14,32,25.40
2016,08,20,14,33,25.30
2016,08,20,14,34,25.20
2016,08,20,14,35,25.10
2016,08,20,14,36,25.10
2016,08,20,14,37,25.00
2016,08,20,14,38,24.90
2016,08,20,14,39,24.80
2016,08,20,14,40,24.90
2016,08,20,14,41,25.00
2016,08,20,14,42,25.00
2016,08,20,14,43,25.10
2016,08,20,14,44,25.10
2016,08,20,14,45,25.00
2016,08,20,14,46,25.00
2016,08,20,14,47,25.10
2016,08,20,14,48,25.10
2016,08,20,14,49,25.10
2016,08,20,14,50,25.10
2016,08,20,14,51,25.20
2016,08,20,14,52,25.20
2016,08,20,14,53,25.20
2016,08,20,14,54,25.20
2016,08,20,14,55,25.20
2016,08,20,14,56,25.30
2016,08,20,14,57,25.40
2016,08,20,14,58,25.50
2016,08,20,14,59,25.50
2016,08,20,15,00,25.50
2016,08,20,15,01,25.50
2016,08,20,15,02,25.50
2016,08,20,15,03,25.50
2016,08,20,15,04,25.50
2016,08,20,15,05,25.50
2016,08,20,15,06,25.50
2016,08,20,15,07,25.50
2016,08,20,15,08,25.50
2016,08,20,15,09,25.50
2016,08,20,15,10,25.60
2016,08,20,15,11,25.50
2016,08,20,15,12,25.30
2016,08,20,15,13,25.20
2016,08,20,15,14,25.10
2016,08,20,15,15,25.00
2016,08,20,15,16,25.10
2016,08,20,15,17,25.10
2016,08,20,15,18,25.20
2016,08,20,15,19,25.20
2016,08,20,15,20,25.20
2016,08,20,15,21,25.30
2016,08,20,15,22,25.20
2016,08,20,15,23,25.20
2016,08,20,15,24,25.30
2016,08,20,15,25,25.30
2016,08,20,15,26,25.40
2016,08,20,15,27,25.50
2016,08,20,15,28,25.70
2016,08,20,15,29,25.80
2016,08,20,15,30,25.90
2016,08,20,15,31,25.80
2016,08,20,15,32,25.70
2016,08,20,15,33,25.70
2016,08,20,15,34,25.60
2016,08,20,15,35,25.70
2016,08,20,15,36,25.70
2016,08,20,15,37,25.60
2016,08,20,15,38,25.50
2016,08,20,15,39,25.40
2016,08,20,15,40,25.30
2016,08,20,15,41,25.20
2016,08,20,15,42,25.20
2016,08,20,15,43,25.20
2016,08,20,15,44,25.20
2016,08,20,15,45,25.10
2016,08,20,15,46,25.00
2016,08,20,15,47,24.90
2016,08,20,15,48,24.80
2016,08,20,15,49,24.70
2016,08,20,15,50,24.60
2016,08,20,15,51,24.60
2016,08,20,15,52,24.60
2016,08,20,15,53,24.70
2016,08,20,15,54,24.80
2016,08,20,15,55,24.80
2016,08,20,15,56,24.90
2016,08,20,15,57,25.10
2016,08,20,15,58,25.20
2016,08,20,15,59,25.30
2016,08,20,16,00,25.40
2016,08,20,16,01,25.40
2016,08,20,16,02,25.50
2016,08,20,16,03,25.70
2016,08,20,16,04,25.80
2016,08,20,16,05,25.80
2016,08,20,16,06,25.70
2016,08,20,16,07,25.50
2016,08,20,16,08,25.40
2016,08,20,16,09,25.20
2016,08,20,16,10,25.00
2016,08,20,16,11,25.00
2016,08,20,16,12,25.00
2016,08,20,16,13,25.00
2016,08,20,16,14,25.00
2016,08,20,16,15,25.10
2016,08,20,16,16,25.10
2016,08,20,16,17,25.20
2016,08,20,16,18,25.30
2016,08,20,16,19,25.40
2016,08,20,16,20,25.60
2016,08,20,16,21,25.70
2016,08,20,16,22,25.80
2016,08,20,16,23,25.90
2016,08,20,16,24,26.00
2016,08,20,16,25,26.00
2016,08,20,16,26,25.90
2016,08,20,16,27,25.90
2016,08,20,16,28,25.80
2016,08,20,16,29,25.70
2016,08,20,16,30,25.60
2016,08,20,16,31,25.70
2016,08,20,16,32,25.80
2016,08,20,16,33,25.80
2016,08,20,16,34,25.90
2016,08,20,16,35,25.90
2016,08,20,16,36,25.90
2016,08,20,16,37,26.00
2016,08,20,16,38,26.10
2016,08,20,16,39,26.20
2016,08,20,16,40,26.30
2016,08,20,16,41,26.40
2016,08,20,16,42,26.60
2016,08,20,16,43,26.60
2016,08,20,16,44,26.70
2016,08,20,16,45,26.70
2016,08,20,16,46,26.70
2016,08,20,16,47,26.70
2016,08,20,16,48,26.70
2016,08,20,16,49,26.80
2016,08,20,16,50,26.90
2016,08,20,16,51,27.00
2016,08,20,16,52,27.10
2016,08,20,16,53,27.20
2016,08,20,16,54,27.20
2016,08,20,16,55,27.00
2016,08,20,16,56,26.90
2016,08,20,16,57,26.80
2016,08,20,16,58,26.70
2016,08,20,16,59,26.60
2016,08,20,17,00,26.50
2016,08,20,17,01,26.40
2016,08,20,17,02,26.50
2016,08,20,17,03,26.60
2016,08,20,17,04,26.60
2016,08,20,17,05,26.70
2016,08,20,17,06,26.60
2016,08,20,17,07,26.50
2016,08,20,17,08,26.30
2016,08,20,17,09,26.20
2016,08,20,17,10,26.20
2016,08,20,17,11,26.10
2016,08,20,17,12,26.10
2016,08,20,17,13,26.20
2016,08,20,17,14,26.20
2016,08,20,17,15,26.20
2016,08,20,17,16,26.20
2016,08,20,17,17,26.20
2016,08,20,17,18,26.10
2016,08,20,17,19,26.00